IRIDIUM 108

Last updated on Sun Jun 21 2026 00:03:13 GMT+0000 (Coordinated Universal Time)

1 41924U 17003H 26171.17455725 .00000187 00000+0 59531-4 0 9996 2 41924 86.3956 55.5112 0002248 86.4092 273.7360 14.34220707495537
UTC large
Height (km)
Speed (km/s)
/
Latitude / Longitude
Inclination (degrees)
Orbital Period (minutes)
Azimuth
Elevation
Range (km)
Doppler Factor

Next 0 passes for location: London (51.5072 / 0.1276)

No passes found over London.
IRIDIUM 108